Time,TemperatureF,DewpointF,PressureIn,WindDirection,WindDirectionDegrees,WindSpeedMPH,WindSpeedGustMPH,Humidity,HourlyPrecipIn,Conditions,Clouds,dailyrainin,SoftwareType,DateUTC
2013-06-12 00:03:00,74.0,68.0,29.81,South,171,0.0,2.0,82,0.00,,,0.00,,2013-06-12 05:03:00,
2013-06-12 00:12:00,74.0,68.0,29.81,South,171,0.0,2.0,82,0.00,,,0.00,,2013-06-12 05:12:00,
2013-06-12 00:22:00,74.0,68.0,29.81,South,171,0.0,2.0,83,0.00,,,0.00,,2013-06-12 05:22:00,
2013-06-12 00:32:00,74.0,69.0,29.81,SSW,210,2.0,5.0,84,0.00,,,0.00,,2013-06-12 05:32:00,
2013-06-12 00:42:00,74.0,69.0,29.81,SSW,210,2.0,5.0,84,0.00,,,0.00,,2013-06-12 05:42:00,
2013-06-12 00:52:00,74.0,68.0,29.82,SSW,204,1.0,7.0,83,0.00,,,0.00,,2013-06-12 05:52:00,
2013-06-12 01:02:00,75.0,69.0,29.82,SSW,208,0.0,7.0,83,0.00,,,0.00,,2013-06-12 06:02:00,
2013-06-12 01:12:00,75.0,69.0,29.82,SSW,208,0.0,7.0,83,0.00,,,0.00,,2013-06-12 06:12:00,
2013-06-12 01:22:00,74.0,68.0,29.82,WSW,252,3.0,6.0,83,0.00,,,0.00,,2013-06-12 06:22:00,
2013-06-12 01:32:00,74.0,69.0,29.81,SW,217,5.0,8.0,84,0.00,,,0.00,,2013-06-12 06:32:00,
2013-06-12 01:42:00,74.0,69.0,29.81,SW,217,5.0,8.0,84,0.00,,,0.00,,2013-06-12 06:42:00,
2013-06-12 01:52:00,74.0,69.0,29.81,SSW,205,2.0,7.0,84,0.00,,,0.00,,2013-06-12 06:52:00,
2013-06-12 02:02:00,74.0,69.0,29.80,SSW,207,0.0,7.0,85,0.00,,,0.00,,2013-06-12 07:02:00,
2013-06-12 02:12:00,74.0,69.0,29.80,SW,223,1.0,3.0,85,0.00,,,0.00,,2013-06-12 07:12:00,
2013-06-12 02:22:00,74.0,69.0,29.80,SSW,200,0.0,4.0,84,0.00,,,0.00,,2013-06-12 07:22:00,
2013-06-12 02:33:00,74.0,69.0,29.80,SSW,200,0.0,4.0,84,0.00,,,0.00,,2013-06-12 07:33:00,
2013-06-12 02:43:00,74.0,69.0,29.79,WSW,237,2.0,5.0,84,0.00,,,0.00,,2013-06-12 07:43:00,
2013-06-12 02:53:00,74.0,68.0,29.80,SSW,206,3.0,7.0,83,0.00,,,0.00,,2013-06-12 07:53:00,
2013-06-12 03:02:00,74.0,68.0,29.80,SSW,206,3.0,7.0,83,0.00,,,0.00,,2013-06-12 08:02:00,
2013-06-12 03:12:00,74.0,68.0,29.80,SSW,204,1.0,3.0,83,0.00,,,0.00,,2013-06-12 08:12:00,
2013-06-12 03:22:00,74.0,68.0,29.80,WNW,302,0.0,5.0,83,0.00,,,0.00,,2013-06-12 08:22:00,
2013-06-12 03:33:00,74.0,68.0,29.80,WNW,302,0.0,5.0,83,0.00,,,0.00,,2013-06-12 08:33:00,
2013-06-12 03:43:00,74.0,69.0,29.82,North,5,0.0,3.0,84,0.00,,,0.00,,2013-06-12 08:43:00,
2013-06-12 03:53:00,73.0,69.0,29.83,NNE,20,1.0,4.0,86,0.00,,,0.00,,2013-06-12 08:53:00,
2013-06-12 04:01:00,73.0,69.0,29.83,NNE,20,1.0,4.0,86,0.00,,,0.00,,2013-06-12 09:01:00,
2013-06-12 04:11:00,73.0,68.0,29.83,NNW,340,2.0,5.0,85,0.00,,,0.00,,2013-06-12 09:11:00,
2013-06-12 04:22:00,74.0,69.0,29.83,North,355,0.0,4.0,84,0.00,,,0.00,,2013-06-12 09:22:00,
2013-06-12 04:33:00,74.0,69.0,29.83,North,355,0.0,4.0,84,0.00,,,0.00,,2013-06-12 09:33:00,
2013-06-12 04:42:00,73.0,68.0,29.83,North,355,0.0,2.0,84,0.00,,,0.00,,2013-06-12 09:42:00,
2013-06-12 04:53:00,72.0,67.0,29.83,North,355,0.0,3.0,85,0.00,,,0.00,,2013-06-12 09:53:00,
2013-06-12 05:02:00,72.0,67.0,29.83,North,355,0.0,3.0,85,0.00,,,0.00,,2013-06-12 10:02:00,
2013-06-12 05:11:00,72.0,68.0,29.83,North,355,0.0,0.0,87,0.00,,,0.00,,2013-06-12 10:11:00,
2013-06-12 05:23:00,71.0,67.0,29.84,North,355,0.0,2.0,88,0.00,,,0.00,,2013-06-12 10:23:00,
2013-06-12 05:33:00,71.0,67.0,29.84,North,355,0.0,2.0,88,0.00,,,0.00,,2013-06-12 10:33:00,
2013-06-12 05:43:00,70.0,67.0,29.84,North,355,0.0,2.0,89,0.00,,,0.00,,2013-06-12 10:43:00,
2013-06-12 05:53:00,70.0,67.0,29.83,North,355,0.0,1.0,90,0.00,,,0.00,,2013-06-12 10:53:00,
2013-06-12 06:02:00,70.0,67.0,29.83,North,355,0.0,1.0,90,0.00,,,0.00,,2013-06-12 11:02:00,
2013-06-12 06:12:00,70.0,67.0,29.83,North,355,0.0,1.0,91,0.00,,,0.00,,2013-06-12 11:12:00,
2013-06-12 06:24:00,70.0,68.0,29.82,North,355,0.0,1.0,92,0.00,,,0.00,,2013-06-12 11:24:00,
2013-06-12 06:33:00,70.0,68.0,29.82,North,355,0.0,1.0,92,0.00,,,0.00,,2013-06-12 11:33:00,
2013-06-12 06:43:00,72.0,69.0,29.81,SSW,205,1.0,4.0,91,0.00,,,0.00,,2013-06-12 11:43:00,
2013-06-12 06:53:00,73.0,69.0,29.81,SSW,212,2.0,5.0,88,0.00,,,0.00,,2013-06-12 11:53:00,
2013-06-12 07:02:00,73.0,69.0,29.81,SSW,212,2.0,5.0,88,0.00,,,0.00,,2013-06-12 12:02:00,
2013-06-12 07:11:00,74.0,70.0,29.83,SSW,213,0.0,4.0,86,0.00,,,0.00,,2013-06-12 12:11:00,
2013-06-12 07:23:00,74.0,70.0,29.85,SSW,213,0.0,1.0,86,0.00,,,0.00,,2013-06-12 12:23:00,
2013-06-12 07:33:00,74.0,70.0,29.85,SSW,213,0.0,1.0,86,0.00,,,0.00,,2013-06-12 12:33:00,
2013-06-12 07:42:00,74.0,70.0,29.86,SSW,213,0.0,1.0,86,0.00,,,0.00,,2013-06-12 12:42:00,
2013-06-12 07:53:00,75.0,71.0,29.87,SSW,213,0.0,1.0,86,0.00,,,0.00,,2013-06-12 12:53:00,
2013-06-12 08:01:00,75.0,71.0,29.87,SSW,213,0.0,1.0,86,0.00,,,0.00,,2013-06-12 13:01:00,
2013-06-12 08:12:00,75.0,70.0,29.87,SSW,213,0.0,3.0,85,0.00,,,0.00,,2013-06-12 13:12:00,
2013-06-12 08:22:00,76.0,71.0,29.86,SSW,213,0.0,2.0,84,0.00,,,0.00,,2013-06-12 13:22:00,
2013-06-12 08:33:00,76.0,71.0,29.86,SSW,213,0.0,2.0,84,0.00,,,0.00,,2013-06-12 13:33:00,
2013-06-12 08:43:00,77.0,71.0,29.86,SSW,213,0.0,3.0,82,0.00,,,0.00,,2013-06-12 13:43:00,
2013-06-12 08:53:00,78.0,72.0,29.85,SW,226,0.0,3.0,82,0.00,,,0.00,,2013-06-12 13:53:00,
2013-06-12 09:02:00,78.0,72.0,29.85,SW,226,0.0,3.0,82,0.00,,,0.00,,2013-06-12 14:02:00,
2013-06-12 09:11:00,78.0,72.0,29.85,WNW,288,0.0,2.0,81,0.00,,,0.00,,2013-06-12 14:11:00,
2013-06-12 09:24:00,78.0,72.0,29.85,WNW,288,0.0,2.0,81,0.00,,,0.00,,2013-06-12 14:24:00,
2013-06-12 09:33:00,79.0,72.0,29.85,SW,219,0.0,5.0,80,0.00,,,0.00,,2013-06-12 14:33:00,
2013-06-12 09:43:00,79.0,72.0,29.84,WSW,244,0.0,3.0,78,0.00,,,0.00,,2013-06-12 14:43:00,
2013-06-12 09:53:00,80.0,72.0,29.83,South,188,1.0,4.0,76,0.00,,,0.00,,2013-06-12 14:53:00,
2013-06-12 10:01:00,80.0,72.0,29.83,South,188,1.0,4.0,76,0.00,,,0.00,,2013-06-12 15:01:00,
2013-06-12 10:12:00,81.0,72.0,29.83,SSW,205,1.0,4.0,75,0.00,,,0.00,,2013-06-12 15:12:00,
2013-06-12 10:23:00,81.0,72.0,29.83,SSW,205,1.0,4.0,75,0.00,,,0.00,,2013-06-12 15:23:00,
2013-06-12 10:33:00,81.0,72.0,29.83,SSW,205,1.0,4.0,75,0.00,,,0.00,,2013-06-12 15:33:00,
2013-06-12 10:43:00,83.0,73.0,29.83,NW,309,0.0,5.0,73,0.00,,,0.00,,2013-06-12 15:43:00,
2013-06-12 10:52:00,83.0,73.0,29.83,NW,321,2.0,5.0,72,0.00,,,0.00,,2013-06-12 15:52:00,
2013-06-12 11:01:00,83.0,73.0,29.83,NW,321,2.0,5.0,72,0.00,,,0.00,,2013-06-12 16:01:00,
2013-06-12 11:12:00,84.0,73.0,29.83,North,355,2.0,8.0,69,0.00,,,0.00,,2013-06-12 16:12:00,
2013-06-12 11:22:00,84.0,72.0,29.82,NW,313,2.0,6.0,67,0.00,,,0.00,,2013-06-12 16:22:00,
2013-06-12 11:32:00,84.0,72.0,29.82,NW,313,2.0,6.0,67,0.00,,,0.00,,2013-06-12 16:32:00,
2013-06-12 11:43:00,85.0,73.0,29.81,NNW,345,2.0,5.0,68,0.00,,,0.00,,2013-06-12 16:43:00,
2013-06-12 11:52:00,85.0,72.0,29.79,SSW,205,1.0,5.0,66,0.00,,,0.00,,2013-06-12 16:52:00,
2013-06-12 12:01:00,85.0,72.0,29.79,SSW,205,1.0,5.0,66,0.00,,,0.00,,2013-06-12 17:01:00,
2013-06-12 12:12:00,84.0,71.0,29.77,SSW,213,4.0,7.0,66,0.00,,,0.00,,2013-06-12 17:12:00,
2013-06-12 12:23:00,84.0,73.0,29.74,South,191,1.0,5.0,69,0.00,,,0.00,,2013-06-12 17:23:00,
2013-06-12 12:33:00,84.0,73.0,29.74,South,191,1.0,5.0,69,0.00,,,0.00,,2013-06-12 17:33:00,
2013-06-12 12:42:00,85.0,73.0,29.70,SE,128,2.0,9.0,68,0.00,,,0.00,,2013-06-12 17:42:00,
2013-06-12 12:52:00,85.0,73.0,29.70,SE,128,2.0,9.0,68,0.00,,,0.00,,2013-06-12 17:52:00,
2013-06-12 13:02:00,85.0,73.0,29.70,SE,128,2.0,9.0,68,0.00,,,0.00,,2013-06-12 18:02:00,
2013-06-12 13:12:00,86.0,73.0,29.72,South,169,1.0,8.0,66,0.00,,,0.00,,2013-06-12 18:12:00,
2013-06-12 13:22:00,87.0,75.0,29.71,WSW,250,2.0,8.0,67,0.00,,,0.00,,2013-06-12 18:22:00,
2013-06-12 13:32:00,87.0,75.0,29.71,WSW,250,2.0,8.0,67,0.00,,,0.00,,2013-06-12 18:32:00,
2013-06-12 13:43:00,88.0,73.0,29.72,SSW,200,3.0,9.0,62,0.00,,,0.00,,2013-06-12 18:43:00,
2013-06-12 13:53:00,88.0,72.0,29.71,SSW,211,6.0,13.0,59,0.00,,,0.00,,2013-06-12 18:53:00,
2013-06-12 14:01:00,88.0,72.0,29.71,SSW,211,6.0,13.0,59,0.00,,,0.00,,2013-06-12 19:01:00,
2013-06-12 14:11:00,89.0,72.0,29.70,SSW,198,8.0,18.0,57,0.00,,,0.00,,2013-06-12 19:11:00,
2013-06-12 14:22:00,89.0,72.0,29.70,SSW,198,8.0,18.0,57,0.00,,,0.00,,2013-06-12 19:22:00,
2013-06-12 14:32:00,89.0,72.0,29.70,SSW,198,8.0,18.0,57,0.00,,,0.00,,2013-06-12 19:32:00,
2013-06-12 14:42:00,89.0,72.0,29.70,SSW,198,8.0,18.0,57,0.00,,,0.00,,2013-06-12 19:42:00,
2013-06-12 14:52:00,90.0,71.0,29.72,SSW,202,5.0,13.0,54,0.00,,,0.00,,2013-06-12 19:52:00,
2013-06-12 15:01:00,90.0,71.0,29.72,SSW,202,5.0,13.0,54,0.00,,,0.00,,2013-06-12 20:01:00,
2013-06-12 15:11:00,91.0,72.0,29.71,SW,219,3.0,11.0,54,0.00,,,0.00,,2013-06-12 20:11:00,
2013-06-12 15:22:00,91.0,72.0,29.71,SW,219,3.0,11.0,54,0.00,,,0.00,,2013-06-12 20:22:00,
2013-06-12 15:32:00,91.0,72.0,29.71,SW,219,3.0,11.0,54,0.00,,,0.00,,2013-06-12 20:32:00,
2013-06-12 15:42:00,92.0,72.0,29.71,West,275,3.0,10.0,52,0.00,,,0.00,,2013-06-12 20:42:00,
2013-06-12 15:54:00,93.0,72.0,29.70,West,262,2.0,6.0,50,0.00,,,0.00,,2013-06-12 20:54:00,
2013-06-12 16:01:00,93.0,72.0,29.70,West,262,2.0,6.0,50,0.00,,,0.00,,2013-06-12 21:01:00,
2013-06-12 16:11:00,93.0,72.0,29.70,WSW,237,2.0,11.0,51,0.00,,,0.00,,2013-06-12 21:11:00,
2013-06-12 16:22:00,92.0,71.0,29.69,SW,223,2.0,6.0,51,0.00,,,0.00,,2013-06-12 21:22:00,
2013-06-12 16:33:00,92.0,71.0,29.69,SW,223,2.0,6.0,51,0.00,,,0.00,,2013-06-12 21:33:00,
2013-06-12 16:43:00,92.0,71.0,29.69,SW,223,2.0,6.0,51,0.00,,,0.00,,2013-06-12 21:43:00,
2013-06-12 16:52:00,92.0,71.0,29.69,SW,223,2.0,6.0,51,0.00,,,0.00,,2013-06-12 21:52:00,
2013-06-12 17:01:00,92.0,71.0,29.69,SW,223,2.0,6.0,51,0.00,,,0.00,,2013-06-12 22:01:00,
2013-06-12 17:11:00,92.0,71.0,29.65,South,177,3.0,10.0,50,0.00,,,0.00,,2013-06-12 22:11:00,
2013-06-12 17:22:00,92.0,69.0,29.65,SSW,200,2.0,11.0,48,0.00,,,0.00,,2013-06-12 22:22:00,
2013-06-12 17:32:00,92.0,69.0,29.65,SSW,200,2.0,11.0,48,0.00,,,0.00,,2013-06-12 22:32:00,
2013-06-12 17:43:00,92.0,69.0,29.64,SSW,203,3.0,9.0,48,0.00,,,0.00,,2013-06-12 22:43:00,
2013-06-12 17:52:00,91.0,68.0,29.63,SW,231,2.0,12.0,47,0.00,,,0.00,,2013-06-12 22:52:00,
2013-06-12 18:02:00,91.0,68.0,29.63,SW,231,2.0,12.0,47,0.00,,,0.00,,2013-06-12 23:02:00,
2013-06-12 18:12:00,91.0,69.0,29.63,WSW,247,2.0,10.0,49,0.00,,,0.00,,2013-06-12 23:12:00,
2013-06-12 18:22:00,90.0,69.0,29.62,SW,217,5.0,12.0,50,0.00,,,0.00,,2013-06-12 23:22:00,
2013-06-12 18:32:00,90.0,69.0,29.62,SW,217,5.0,12.0,50,0.00,,,0.00,,2013-06-12 23:32:00,
2013-06-12 18:42:00,90.0,69.0,29.60,SW,214,7.0,14.0,50,0.00,,,0.00,,2013-06-12 23:42:00,
2013-06-12 18:52:00,90.0,70.0,29.60,WSW,254,5.0,20.0,52,0.00,,,0.00,,2013-06-12 23:52:00,
2013-06-12 19:01:00,90.0,70.0,29.60,WSW,254,5.0,20.0,52,0.00,,,0.00,,2013-06-13 00:01:00,
2013-06-12 19:12:00,90.0,70.0,29.59,SSW,196,7.0,16.0,52,0.00,,,0.00,,2013-06-13 00:12:00,
2013-06-12 19:22:00,89.0,70.0,29.55,SSW,200,8.0,15.0,54,0.00,,,0.00,,2013-06-13 00:22:00,
2013-06-12 19:32:00,89.0,70.0,29.55,SSW,200,8.0,15.0,54,0.00,,,0.00,,2013-06-13 00:32:00,
2013-06-12 19:42:00,90.0,71.0,29.56,West,267,5.0,14.0,53,0.00,,,0.00,,2013-06-13 00:42:00,
2013-06-12 19:52:00,89.0,70.0,29.55,SSW,192,8.0,16.0,54,0.00,,,0.00,,2013-06-13 00:52:00,
2013-06-12 20:01:00,89.0,70.0,29.55,SSW,192,8.0,16.0,54,0.00,,,0.00,,2013-06-13 01:01:00,
2013-06-12 20:12:00,89.0,70.0,29.53,SSW,200,7.0,15.0,54,0.00,,,0.00,,2013-06-13 01:12:00,
2013-06-12 20:22:00,88.0,70.0,29.53,SSW,205,6.0,12.0,56,0.00,,,0.00,,2013-06-13 01:22:00,
2013-06-12 20:32:00,88.0,70.0,29.53,SSW,205,6.0,12.0,56,0.00,,,0.00,,2013-06-13 01:32:00,
2013-06-12 20:43:00,86.0,71.0,29.55,WSW,241,4.0,11.0,62,0.01,,,0.01,,2013-06-13 01:43:00,
2013-06-12 20:53:00,82.0,68.0,29.61,North,5,15.0,27.0,63,0.04,,,0.04,,2013-06-13 01:53:00,
2013-06-12 21:02:00,82.0,68.0,29.61,North,5,15.0,27.0,63,0.04,,,0.04,,2013-06-13 02:02:00,
2013-06-12 21:12:00,82.0,68.0,29.61,North,5,15.0,27.0,63,0.04,,,0.04,,2013-06-13 02:12:00,
2013-06-12 22:12:00,69.0,67.0,29.59,NE,49,0.0,2.0,94,0.16,,,0.47,,2013-06-13 03:12:00,
2013-06-12 22:22:00,70.0,68.0,29.59,NNE,32,0.0,2.0,95,0.03,,,0.47,,2013-06-13 03:22:00,
2013-06-12 22:33:00,70.0,68.0,29.59,NNE,32,0.0,2.0,95,0.03,,,0.47,,2013-06-13 03:33:00,
2013-06-12 22:42:00,70.0,68.0,29.59,NNE,32,0.0,2.0,95,0.03,,,0.47,,2013-06-13 03:42:00,
2013-06-12 22:52:00,70.0,68.0,29.58,SSW,212,2.0,3.0,95,0.02,,,0.47,,2013-06-13 03:52:00,
2013-06-12 23:01:00,70.0,68.0,29.58,SSW,212,2.0,3.0,95,0.02,,,0.47,,2013-06-13 04:01:00,
2013-06-12 23:12:00,70.0,68.0,29.58,SSW,212,2.0,3.0,95,0.02,,,0.47,,2013-06-13 04:12:00,
2013-06-12 23:22:00,70.0,68.0,29.58,SW,215,0.0,2.0,95,0.00,,,0.47,,2013-06-13 04:22:00,
2013-06-12 23:32:00,70.0,68.0,29.58,SW,215,0.0,2.0,95,0.00,,,0.47,,2013-06-13 04:32:00,
2013-06-12 23:43:00,70.0,68.0,29.58,SW,215,0.0,2.0,95,0.00,,,0.47,,2013-06-13 04:43:00,
2013-06-12 23:53:00,70.0,69.0,29.62,NNE,17,6.0,11.0,96,0.00,,,0.47,,2013-06-13 04:53:00,